Regional Weather Roundup
Issued by NWS

Home | Current Version | Previous Version | Text Only | Print | Product List | Glossary Off
Versions: 1 2 3 4 5 6 7 8 9 10 11 12 13 14 15 16 17 18 19 20 21 22 23 24 25 26 27 28 29 30 31 32 33 34 35 36 37 38 39 40 41 42 43 44 45 46 47 48 49 50

301
ASUS43 KMKX 201700
RWRWI

WISCONSIN REGIONAL WEATHER ROUNDUP
NATIONAL WEATHER SERVICE MILWAUKEE/SULLIVAN WI
1100 AM CST MON NOV 20 2017

NOTE: "FAIR" INDICATES FEW OR NO CLOUDS BELOW 12,000 FEET WITH NO
SIGNIFICANT WEATHER AND/OR OBSTRUCTIONS TO VISIBILITY.

WIZ001-002-006>008-014>016-023>028-201800-
NORTHWEST WISCONSIN

CITY           SKY/WX    TMP DP  RH WIND       PRES   REMARKS
SUPERIOR ARPT  PTSUNNY   30  27  88 CALM      29.54F
ASHLAND        CLOUDY    33  28  81 CALM      29.57F
HAYWARD        CLOUDY    38  26  62 S13       29.54F WCI  30
SIREN          CLOUDY    37  28  70 S8        29.55F WCI  31
CUMBERLAND     CLOUDY    36  30  80 SE8       29.57F WCI  29
RICE LAKE      CLOUDY    35  29  80 SE7       29.61F WCI  29
CHETEK         CLOUDY    34  29  82 SE5       29.60F WCI  30
LADYSMITH      CLOUDY    37  29  75 S7        29.61F WCI  31
EAU CLAIRE     NOT AVBL
MENOMONIE      CLOUDY    41  30  64 SE10      29.59F
NEW RICHMOND   NOT AVBL
OSCEOLA        MOSUNNY   38  29  71 S8        29.59F WCI  32
$$

WIZ003>005-009-010-017-018-201800-
NORTH CENTRAL WISCONSIN

CITY           SKY/WX    TMP DP  RH WIND       PRES   REMARKS
MANITOWISH WTR CLOUDY    32  29  89 S9        29.60F WCI  24
ARBOR VITAE    CLOUDY    34  29  82 S7        29.61F WCI  28
WOODRUFF       CLOUDY    34  29  82 S7        29.61F WCI  28
RHINELANDER    CLOUDY    36  27  69 S7        29.62F WCI  30
EAGLE RIVER    CLOUDY    34  27  74 S6        29.61F WCI  29
LAND O LAKES   CLOUDY    32  28  84 S3        29.63F
PHILLIPS       CLOUDY    34  28  77 S6        29.59F WCI  29
TOMAHAWK       CLOUDY    33  27  79 CALM      29.65F
MEDFORD        CLOUDY    35  28  76 S9        29.64F WCI  28
MERRILL        CLOUDY    37  28  67 SW6       29.66F WCI  33
$$

WIZ029-030-035-036-043>047-201800-
CENTRAL WISCONSIN

CITY           SKY/WX    TMP DP  RH WIND       PRES   REMARKS
WAUSAU         CLOUDY    37  27  67 S8        29.66F WCI  31
MOSINEE        PTSUNNY   37  30  75 S12       29.68F WCI  30
MARSHFIELD     CLOUDY    40  27  59 S8        29.64F WCI  34
STEVENS POINT  CLOUDY    37  27  67 S9        29.70F WCI  30
WAUPACA        CLOUDY    42  28  58 S7        29.73F
WAUTOMA        CLOUDY    42  28  57 S9        29.71F
WISC RAPIDS    CLOUDY    42  29  59 SW7       29.69F
CAMP DOUGLAS   NOT AVBL
$$

WIZ011>013-019>022-031-037>040-048>050-201800-
NORTHEAST WISCONSIN

CITY           SKY/WX    TMP DP  RH WIND       PRES   REMARKS
ANTIGO         CLOUDY    34  28  77 SW5       29.68F WCI  30
SHAWANO        CLOUDY    39  28  63 S5        29.71F
OCONTO         CLOUDY    37  27  66 SW7       29.74F WCI  32
STURGEON BAY   CLOUDY    39  28  64 S6        29.74F WCI  35
GREEN BAY      CLOUDY    39  31  72 SW12      29.73F WCI  32
MANITOWOC      CLOUDY    43  28  55 SW6       29.76F
APPLETON       MOSUNNY   39  25  56 SW16      29.72F WCI  30
CLINTONVILLE   CLOUDY    37  27  65 S9        29.72F WCI  31
OSHKOSH        CLOUDY    40  29  64 S14       29.73F WCI  32
$$

WIZ032>034-041-042-053>061-201800-
SOUTHWEST WISCONSIN

CITY           SKY/WX    TMP DP  RH WIND       PRES   REMARKS
LA CROSSE      CLOUDY    44  29  55 S15       29.66F
SPARTA         CLOUDY    42  30  62 S10       29.69F
VIROQUA        CLOUDY    42  31  64 S14       29.68F
BOSCOBEL       CLOUDY    47  29  49 SW14      29.74F
PRAIRIE DU CHI SUNNY     45  28  52 S10       29.74F
PLATTEVILLE    SUNNY     45  33  64 S16       29.77F
$$

WIZ056-057-062-063-064-067-068-201800-
SOUTH CENTRAL WISCONSIN

CITY           SKY/WX    TMP DP  RH WIND       PRES   REMARKS
REEDSBURG      SUNNY     42  29  60 S10       29.73F
BARABOO/DELLS  SUNNY     42  28  56 SW10      29.73F
LONE ROCK      CLOUDY    45  31  58 S15       29.74F
MINERAL POINT  CLOUDY    43  34  70 S14       29.75F
MADISON        PTSUNNY   43  29  57 S13       29.75F
MIDDLETON      SUNNY     45  30  56 SW10      29.76F
WATERTOWN      SUNNY     41  30  64 SW16      29.79F
MONROE         SUNNY     43  30  61 SW16      29.79F
JANESVILLE     MOSUNNY   46  30  53 SW12G18   29.81F
$$

WIZ051-052-058>065-066-070>072-201800-
SOUTHEAST WISCONSIN

CITY           SKY/WX    TMP DP  RH WIND       PRES   REMARKS
MILWAUKEE      PTSUNNY   46  29  51 SW15      29.81F
WAUKESHA       SUNNY     43  28  56 SW13      29.81F
MILWAUKEE/TIMM SUNNY     45  25  45 SW14      29.81F
RACINE         SUNNY     47  29  49 SW17G26   29.83F
BURLINGTON     SUNNY     47  35  63 SW17G23   29.82F
KENOSHA        SUNNY     46  29  51 SW15G29   29.82F
FOND DU LAC    CLOUDY    41  28  60 S14       29.74F
SHEBOYGAN      CLOUDY    43  29  57 SW12      29.75F
WEST BEND      SUNNY     43  28  56 SW12      29.78F
JUNEAU         SUNNY     39  29  68 S13G18    29.78F WCI  31
$$

LSZ147-162-201800-
LAKE SUPERIOR

STATION/POSITION TIME  TEMP    WIND        PRES    WAVE
                       AIR SEA DIR/SP/G            HT/PER
                 (UTC) (F)     (DEG/KT/KT) (MB)    (FT/S)
DEVILS ISLAND    1600   33     170/  5/  7 1002.9F
SAXON HARBOR     1640   35      60/  3/  3 1001.4F
$$

LMZ867-665-643>646-201800-
LAKE MICHIGAN

STATION/POSITION TIME  TEMP    WIND        PRES    WAVE
                       AIR SEA DIR/SP/G            HT/PER
                 (UTC) (F)     (DEG/KT/KT) (MB)    (FT/S)
N MID LAKE BUOY  1550   39 48  200/ 12/ 14 1009.3F   2/ 5
NORTHPORT PIER   1640   39     180/  3/  7 1007.8F
KEWAUNEE LAKESHO 1630   40     200/  5/  6 1007.2F
SHEBOYGAN LAKESH 1600   39     230/ 16/ 18 1009.0F
PORT WASHINGTON  1630   45     260/ 11/ 16 1009.8F
MILWAUKEE LAKESH 1630   43     230/ 18/ 20   N/A
S MID LAKE BUOY  1550   43 49  250/ 23/ 27 1011.9F   7/ 6
KENOSHA   LAKESH 1600   44     230/ 15/ 22 1010.8
$$

TC  - TEMPERATURE IN CELSIUS
VSB - VISIBILITY IN STATUTE MILES
WCI - WIND CHILL INDEX
HX  - HEAT INDEX





USA.gov is the U.S. government's official web portal to all federal, state and local government web resources and services.